Time,TemperatureF,DewpointF,PressureIn,WindDirection,WindDirectionDegrees,WindSpeedMPH,WindSpeedGustMPH,Humidity,HourlyPrecipIn,Conditions,Clouds,dailyrainin,SoftwareType,DateUTC
2013-04-01 00:09:00,57.9,57.6,29.80,NW,315,0.0,-999.0,99,-99.99,,,0.00,Acu-Link.com,2013-04-01 05:09:00,
2013-04-01 00:24:00,57.9,57.6,29.81,NW,315,0.0,-999.0,99,-99.99,,,0.00,Acu-Link.com,2013-04-01 05:24:00,
2013-04-01 00:39:00,57.9,57.6,29.80,ESE,112,0.0,-999.0,99,-99.99,,,0.00,Acu-Link.com,2013-04-01 05:39:00,
2013-04-01 00:54:00,57.9,57.6,29.80,East,90,0.0,-999.0,99,-99.99,,,0.00,Acu-Link.com,2013-04-01 05:54:00,
2013-04-01 01:10:00,57.7,57.4,29.80,SSE,157,0.0,-999.0,99,-99.99,,,0.00,Acu-Link.com,2013-04-01 06:10:00,
2013-04-01 01:25:00,57.6,57.3,29.81,NW,315,0.0,-999.0,99,-99.99,,,0.00,Acu-Link.com,2013-04-01 06:25:00,
2013-04-01 01:40:00,57.6,57.3,29.80,NW,315,1.7,-999.0,99,-99.99,,,0.00,Acu-Link.com,2013-04-01 06:40:00,
2013-04-01 01:55:00,57.2,56.9,29.81,West,270,1.7,-999.0,99,-99.99,,,0.00,Acu-Link.com,2013-04-01 06:55:00,
2013-04-01 02:26:00,57.0,56.7,29.79,West,270,0.0,-999.0,99,-99.99,,,0.00,Acu-Link.com,2013-04-01 07:26:00,
2013-04-01 02:41:00,57.0,56.7,29.79,West,270,0.0,-999.0,99,-99.99,,,0.00,Acu-Link.com,2013-04-01 07:41:00,
2013-04-01 02:56:00,56.8,56.5,29.80,West,270,0.0,-999.0,99,-99.99,,,0.00,Acu-Link.com,2013-04-01 07:56:00,
2013-04-01 03:12:00,56.8,56.5,29.80,West,270,0.0,-999.0,99,-99.99,,,0.00,Acu-Link.com,2013-04-01 08:12:00,
2013-04-01 03:27:00,56.7,56.4,29.80,West,270,0.0,-999.0,99,-99.99,,,0.00,Acu-Link.com,2013-04-01 08:27:00,
2013-04-01 03:43:00,56.5,56.2,29.80,South,180,0.0,-999.0,99,-99.99,,,0.00,Acu-Link.com,2013-04-01 08:43:00,
2013-04-01 03:58:00,56.1,55.8,29.81,WSW,247,0.0,-999.0,99,-99.99,,,0.00,Acu-Link.com,2013-04-01 08:58:00,
2013-04-01 04:13:00,55.9,55.6,29.81,South,180,0.0,-999.0,99,-99.99,,,0.00,Acu-Link.com,2013-04-01 09:13:00,
2013-04-01 04:43:00,55.4,55.1,29.82,South,180,0.0,-999.0,99,-99.99,,,0.00,Acu-Link.com,2013-04-01 09:43:00,
2013-04-01 04:58:00,55.2,54.9,29.83,WSW,247,0.0,-999.0,99,-99.99,,,0.00,Acu-Link.com,2013-04-01 09:58:00,
2013-04-01 05:14:00,55.2,54.9,29.84,WSW,247,0.0,-999.0,99,-99.99,,,0.00,Acu-Link.com,2013-04-01 10:14:00,
2013-04-01 05:29:00,55.0,54.7,29.85,WNW,292,0.0,-999.0,99,-99.99,,,0.00,Acu-Link.com,2013-04-01 10:29:00,
2013-04-01 05:44:00,55.0,54.7,29.86,WSW,247,0.0,-999.0,99,-99.99,,,0.00,Acu-Link.com,2013-04-01 10:44:00,
2013-04-01 05:59:00,55.2,54.9,29.87,NNW,337,0.0,-999.0,99,-99.99,,,0.00,Acu-Link.com,2013-04-01 10:59:00,
2013-04-01 06:14:00,55.4,55.1,29.88,WNW,292,0.0,-999.0,99,-99.99,,,0.00,Acu-Link.com,2013-04-01 11:14:00,
2013-04-01 06:30:00,55.8,55.5,29.88,West,270,0.0,-999.0,99,-99.99,,,0.00,Acu-Link.com,2013-04-01 11:30:00,
2013-04-01 06:45:00,55.9,55.6,29.89,West,270,0.0,-999.0,99,-99.99,,,0.00,Acu-Link.com,2013-04-01 11:45:00,
2013-04-01 07:00:00,56.1,55.8,29.90,West,270,0.0,-999.0,99,-99.99,,,0.00,Acu-Link.com,2013-04-01 12:00:00,
2013-04-01 07:15:00,56.1,55.8,29.90,West,270,0.0,-999.0,99,-99.99,,,0.00,Acu-Link.com,2013-04-01 12:15:00,
2013-04-01 07:30:00,56.1,55.8,29.91,WNW,292,0.0,-999.0,99,-99.99,,,0.00,Acu-Link.com,2013-04-01 12:30:00,
2013-04-01 07:46:00,56.5,56.2,29.91,WNW,292,0.0,-999.0,99,-99.99,,,0.00,Acu-Link.com,2013-04-01 12:46:00,
2013-04-01 08:16:00,57.7,57.4,29.92,NNW,337,0.0,-999.0,99,-99.99,,,0.00,Acu-Link.com,2013-04-01 13:16:00,
2013-04-01 08:31:00,57.7,57.4,29.93,West,270,2.2,-999.0,99,-99.99,,,0.00,Acu-Link.com,2013-04-01 13:31:00,
2013-04-01 08:47:00,57.9,57.6,29.93,NNW,337,1.7,-999.0,99,-99.99,,,0.00,Acu-Link.com,2013-04-01 13:47:00,
2013-04-01 09:02:00,58.3,58.0,29.94,NW,315,1.7,-999.0,99,-99.99,,,0.00,Acu-Link.com,2013-04-01 14:02:00,
2013-04-01 09:17:00,59.0,58.7,29.95,West,270,1.7,-999.0,99,-99.99,,,0.00,Acu-Link.com,2013-04-01 14:17:00,
2013-04-01 09:32:00,59.7,59.1,29.95,West,270,0.0,-999.0,98,-99.99,,,0.00,Acu-Link.com,2013-04-01 14:32:00,
2013-04-01 09:48:00,60.8,59.4,29.94,NW,315,1.7,-999.0,95,-99.99,,,0.00,Acu-Link.com,2013-04-01 14:48:00,
2013-04-01 10:17:00,62.6,60.8,29.95,SE,135,0.0,-999.0,94,-99.99,,,0.00,Acu-Link.com,2013-04-01 15:17:00,
2013-04-01 10:33:00,64.2,60.6,29.95,NNE,22,2.2,-999.0,88,-99.99,,,0.00,Acu-Link.com,2013-04-01 15:33:00,
2013-04-01 10:48:00,65.7,60.7,29.95,NW,315,1.1,-999.0,84,-99.99,,,0.00,Acu-Link.com,2013-04-01 15:48:00,
2013-04-01 11:03:00,67.5,61.1,29.94,East,90,1.7,-999.0,80,-99.99,,,0.00,Acu-Link.com,2013-04-01 16:03:00,
2013-04-01 11:18:00,67.6,60.1,29.94,NNW,337,3.2,-999.0,77,-99.99,,,0.00,Acu-Link.com,2013-04-01 16:18:00,
2013-04-01 11:34:00,67.3,59.8,29.94,ESE,112,1.7,-999.0,77,-99.99,,,0.00,Acu-Link.com,2013-04-01 16:34:00,
2013-04-01 11:50:00,68.9,60.3,29.94,ESE,112,1.1,-999.0,74,-99.99,,,0.00,Acu-Link.com,2013-04-01 16:50:00,
2013-04-01 12:05:00,68.5,59.9,29.93,NNW,337,2.2,-999.0,74,-99.99,,,0.00,Acu-Link.com,2013-04-01 17:05:00,
2013-04-01 12:21:00,69.1,60.1,29.93,West,270,1.7,-999.0,73,-99.99,,,0.00,Acu-Link.com,2013-04-01 17:21:00,
2013-04-01 12:51:00,68.2,59.6,29.92,North,0,1.7,-999.0,74,-99.99,,,0.00,Acu-Link.com,2013-04-01 17:51:00,
2013-04-01 13:22:00,70.2,59.1,29.91,NNW,337,1.1,-999.0,68,-99.99,,,0.00,Acu-Link.com,2013-04-01 18:22:00,
2013-04-01 13:37:00,72.0,60.0,29.91,NW,315,2.7,-999.0,66,-99.99,,,0.00,Acu-Link.com,2013-04-01 18:37:00,
2013-04-01 13:53:00,71.8,59.8,29.90,NW,315,3.7,-999.0,66,-99.99,,,0.00,Acu-Link.com,2013-04-01 18:53:00,
2013-04-01 14:08:00,71.2,58.8,29.89,SSW,202,1.7,-999.0,65,-99.99,,,0.00,Acu-Link.com,2013-04-01 19:08:00,
2013-04-01 14:23:00,72.9,58.2,29.89,NE,45,2.7,-999.0,60,-99.99,,,0.00,Acu-Link.com,2013-04-01 19:23:00,
2013-04-01 14:42:00,73.0,57.8,29.88,NNW,337,2.2,-999.0,59,-99.99,,,0.00,Acu-Link.com,2013-04-01 19:42:00,
2013-04-01 15:22:00,73.8,57.6,29.87,NNW,337,2.7,-999.0,57,-99.99,,,0.00,Acu-Link.com,2013-04-01 20:22:00,
2013-04-01 15:39:00,74.8,57.5,29.86,NNW,337,1.7,-999.0,55,-99.99,,,0.00,Acu-Link.com,2013-04-01 20:39:00,
2013-04-01 18:55:00,73.6,55.4,29.83,SE,135,0.0,-999.0,53,-99.99,,,0.00,Acu-Link.com,2013-04-01 23:55:00,
2013-04-01 19:10:00,72.1,57.4,29.83,ESE,112,0.0,-999.0,60,-99.99,,,0.00,Acu-Link.com,2013-04-02 00:10:00,
2013-04-01 19:27:00,71.2,57.1,29.82,ESE,112,0.0,-999.0,61,-99.99,,,0.00,Acu-Link.com,2013-04-02 00:27:00,
2013-04-01 19:47:00,71.2,57.1,29.83,ESE,112,0.0,-999.0,61,-99.99,,,0.00,Acu-Link.com,2013-04-02 00:47:00,
2013-04-01 20:14:00,71.2,57.1,29.83,ESE,112,0.0,-999.0,61,-99.99,,,0.00,Acu-Link.com,2013-04-02 01:14:00,